Theta_e
295 295 295 296 296 295 294 294 295 295 298 298 296 295 296 297 290 288 295 298 296 298 300 303 303 304 304 305 306 307 307 307 307 307 307 306 306 307 307 308 309 310 310 313 314 315 315 316 318 319 319 319 320 320 321 321 321 323 325 324 325 328 324 325 325 325 328 329 328 327 330 329 328 328 329 327 325 324 327 327 326 322 323 321 320 317 318
293 294 295 295 294 294 295 294 295 296 298 297 296 297 300 298 296 297 298 298 296 300 301 302 304 306 306 306 307 307 306 306 306 305 305 304 304 305 305 305 305 305 305 306 306 308 310 311 313 315 317 318 319 318 321 321 318 322 324 324 323 323 323 324 325 323 324 326 325 326 328 329 327 328 325 326 327 327 325 325 327 327 326 326 322 319 318
292 294 295 295 293 293 292 294 295 297 297 297 298 299 300 300 299 299 298 295 292 299 303 303 305 306 306 305 304 305 305 305 305 304 303 303 303 303 302 302 302 303 303 304 305 305 306 307 308 309 310 311 313 317 319 319 319 321 322 321 321 322 322 323 324 323 323 322 323 323 323 325 326 327 325 326 326 325 324 326 328 328 325 322 323 324 322
290 294 293 293 293 292 292 292 294 295 295 293 296 295 300 298 294 296 295 291 290 298 302 302 303 303 303 302 303 304 303 303 303 302 302 302 301 301 301 302 302 301 301 302 302 302 303 304 304 306 307 307 308 309 311 312 314 317 319 320 321 320 321 322 321 321 322 321 321 321 323 323 324 323 324 326 325 324 326 325 324 324 324 323 321 322 322
288 294 294 293 293 291 288 289 293 295 297 296 299 300 301 300 299 293 290 291 297 299 300 299 300 301 302 302 302 302 302 302 301 300 300 300 300 300 301 301 301 301 301 301 302 302 302 302 302 303 305 305 305 307 308 312 312 312 313 312 312 313 313 314 316 324 320 320 321 320 322 323 324 324 323 324 323 324 325 327 326 323 322 323 322 322 323
287 291 293 293 289 281 284 296 298 299 295 295 294 295 298 300 301 296 298 297 299 300 300 299 299 300 300 299 300 301 300 300 299 299 300 300 300 300 300 300 300 301 301 301 301 301 301 302 302 303 304 304 305 307 307 307 309 311 310 310 310 310 311 312 312 313 314 316 318 319 320 322 323 323 324 323 325 325 326 323 321 320 320 322 323 323 323
286 290 291 284 280 283 292 299 299 300 300 299 296 297 298 298 298 299 298 298 298 299 300 300 300 299 299 299 299 299 300 300 299 298 298 297 297 297 298 299 299 300 300 300 301 301 300 301 302 302 301 303 304 304 305 305 306 307 309 308 309 310 310 310 310 311 311 312 313 316 322 322 320 321 321 323 323 322 323 323 321 319 320 320 319 320 321
289 287 286 279 281 290 296 297 298 300 299 298 296 294 297 299 298 298 296 298 299 300 299 299 299 298 298 299 300 300 300 300 299 298 297 297 297 296 297 297 298 298 298 299 299 300 300 300 299 300 300 302 302 302 303 303 303 303 305 306 306 307 307 307 308 309 309 310 311 312 313 314 317 321 323 324 323 323 322 323 323 322 322 322 320 320 320
284 286 286 284 289 290 289 291 293 295 292 294 292 286 291 298 299 299 298 298 298 298 298 298 298 298 298 296 297 300 300 300 301 300 299 298 298 297 297 298 297 298 299 299 299 300 299 299 299 300 300 301 300 301 300 301 301 302 303 304 303 304 304 305 306 306 307 308 309 310 311 312 312 314 315 317 320 324 323 322 322 321 322 322 321 320 319
290 286 284 283 283 280 284 289 294 297 299 298 300 296 290 299 300 300 297 297 298 297 297 295 296 298 294 291 293 298 299 299 299 299 298 298 297 297 297 298 298 299 299 302 302 301 300 299 300 300 300 300 299 300 300 300 301 301 302 302 303 303 303 304 305 305 306 306 307 308 309 309 310 312 313 314 315 318 319 319 319 321 322 321 320 320 319
287 285 282 282 281 282 288 290 293 295 296 298 298 293 287 296 299 298 297 295 295 295 293 294 295 292 287 287 292 296 297 298 298 296 296 296 295 295 296 297 296 296 298 299 300 299 299 299 299 300 300 300 299 300 300 300 300 300 301 302 302 302 303 303 304 303 304 305 306 307 307 309 311 310 311 311 312 313 315 318 318 319 319 320 320 318 318
287 286 283 281 283 283 289 293 294 295 296 297 295 282 283 294 300 298 297 295 295 295 295 295 295 292 287 288 291 296 297 296 296 296 295 295 295 295 295 297 298 298 299 298 298 298 298 299 300 300 300 299 299 300 301 301 301 302 302 301 302 302 302 302 303 303 303 304 305 306 306 307 309 310 310 310 310 311 313 313 313 315 317 318 318 317 318
286 285 283 283 285 289 292 292 295 295 297 295 284 280 288 297 298 298 298 297 297 297 295 296 291 295 295 295 296 297 296 295 295 296 296 296 296 295 295 295 296 297 299 298 298 299 298 298 300 301 301 300 299 299 300 301 300 301 302 302 301 301 301 301 302 302 303 303 304 304 304 305 306 307 307 308 310 310 310 311 312 314 315 317 318 319 321
284 285 283 282 284 287 291 294 295 296 292 284 283 292 300 299 297 299 298 297 298 298 297 294 294 295 296 297 296 296 296 296 296 296 296 296 296 297 297 296 296 297 297 298 298 298 299 299 299 300 299 298 299 299 299 299 300 301 301 300 301 300 301 301 301 302 302 303 304 304 304 304 303 304 306 308 308 309 309 309 309 310 312 313 315 316 317
286 285 282 281 277 287 295 295 294 295 287 287 295 296 297 299 298 296 295 296 296 296 294 295 295 295 296 296 297 297 296 296 295 295 295 296 295 295 296 296 295 295 296 296 296 298 299 299 299 299 299 298 298 298 298 299 301 300 300 300 301 301 300 300 301 301 302 302 303 304 304 304 303 303 303 304 305 306 306 307 307 308 309 310 312 314 316
282 282 279 279 286 291 296 294 287 290 291 295 297 296 293 296 298 295 294 295 296 296 295 295 295 296 295 295 296 296 296 295 296 296 296 296 296 296 296 296 296 295 296 296 297 298 299 299 299 299 299 298 298 297 298 300 300 301 300 300 300 300 300 300 300 300 300 301 302 302 302 302 302 302 302 303 304 305 305 305 305 306 306 308 309 312 313
286 283 285 290 293 294 296 295 294 294 296 297 297 297 296 295 295 297 295 295 296 297 296 296 295 294 295 295 295 294 294 295 294 295 295 296 296 296 296 296 296 296 296 296 297 298 298 299 299 299 299 298 297 297 299 301 299 299 300 300 300 299 299 299 299 299 300 300 301 301 302 302 300 300 300 301 301 301 302 302 302 303 304 305 306 308 313
292 293 294 294 293 294 294 296 296 295 296 297 297 296 294 294 295 296 294 294 294 294 296 295 294 294 295 294 294 294 294 294 294 295 295 295 296 296 297 297 296 296 296 297 297 297 298 299 299 299 299 298 297 298 300 300 299 300 299 299 298 298 298 298 298 299 299 299 299 300 300 300 300 299 299 300 300 300 300 300 301 302 303 304 304 305 310
287 282 292 291 292 293 294 294 296 297 297 296 297 296 295 295 295 295 295 294 294 294 294 294 293 292 294 294 294 294 294 294 294 295 295 295 295 295 295 296 296 296 296 296 296 296 296 298 298 299 299 299 299 299 299 299 299 299 298 298 297 297 297 297 298 298 298 298 298 298 298 298 299 299 299 299 299 298 299 299 299 299 299 299 301 304 305
286 286 291 292 294 294 295 294 293 293 294 295 296 296 296 296 296 295 295 295 295 295 294 294 294 293 293 293 293 293 293 293 294 294 294 295 295 296 296 297 296 296 296 295 295 296 296 297 298 298 298 298 298 299 299 299 299 299 298 297 296 296 297 297 297 297 297 292 295 297 298 298 297 298 298 299 299 299 299 299 299 300 301 300 300 301 304
289 292 292 292 293 293 293 294 295 295 294 293 294 295 295 295 294 295 296 296 296 296 294 295 294 293 294 294 293 292 292 293 293 293 294 294 295 295 295 296 295 295 295 295 295 296 296 297 298 298 298 298 299 299 299 299 299 298 297 296 297 296 296 296 296 297 297 297 297 297 297 297 298 298 297 298 298 298 299 299 300 298 299 300 303 307 305
285 285 288 291 285 285 290 293 294 294 295 295 295 295 295 295 294 294 293 294 295 295 295 294 293 292 292 293 292 291 293 293 293 293 294 294 294 294 295 295 296 296 296 296 296 296 296 297 297 297 298 298 299 298 299 298 298 297 296 296 295 295 296 296 296 296 296 296 296 296 296 296 296 297 293 293 294 297 296 294 293 292 293 299 304 308 301
284 290 292 293 292 292 293 293 294 295 296 295 294 293 293 293 293 292 293 293 293 293 294 295 294 293 293 292 293 292 292 293 294 294 293 292 293 293 294 294 295 295 295 295 296 295 296 297 297 297 297 298 298 298 298 298 298 297 296 295 295 295 295 295 294 295 295 295 295 296 296 295 296 295 296 297 293 292 292 292 292 291 291 292 293 295 300
292 294 293 293 292 290 292 294 294 294 295 295 294 294 294 294 294 294 294 294 292 291 293 294 295 293 293 293 292 291 292 293 293 293 292 293 293 293 294 294 294 294 295 295 295 295 296 297 297 297 297 297 298 298 298 299 298 297 296 295 294 294 294 295 295 294 295 295 295 294 294 295 295 294 294 294 295 293 292 292 292 292 290 290 293 293 294
290 294 294 294 293 293 294 295 295 295 295 294 292 293 294 294 294 295 294 293 294 293 292 293 294 294 293 293 293 293 292 292 293 292 292 292 293 293 294 294 294 294 294 295 296 296 296 297 296 297 297 297 298 298 298 298 298 296 296 295 294 294 294 294 294 294 294 294 294 294 294 293 293 294 293 293 292 293 295 293 292 290 290 290 291 292 292
294 294 295 294 294 294 294 294 293 294 294 294 294 294 294 295 294 293 293 293 293 294 293 293 292 294 294 292 292 292 292 292 292 291 293 293 293 293 293 293 294 294 295 295 296 296 296 296 296 296 296 297 297 298 298 298 297 296 295 295 295 294 294 294 293 293 293 294 293 293 294 293 293 292 292 292 292 292 292 292 294 293 290 289 290 290 290
294 295 293 291 291 291 292 291 290 293 294 294 293 294 294 294 293 293 292 293 293 294 294 293 292 292 293 293 292 293 292 292 292 293 293 293 292 292 293 294 294 294 295 295 295 295 294 296 296 296 296 297 298 298 298 298 297 296 296 296 295 293 289 290 294 294 294 293 293 293 293 292 292 292 292 292 292 291 291 291 291 291 293 295 290 289 295
293 293 293 289 288 289 290 292 294 294 294 293 293 293 294 294 293 293 293 292 293 293 294 294 293 293 292 292 292 292 292 292 291 292 292 292 292 293 293 294 294 294 295 295 295 296 296 296 296 296 296 298 298 298 298 297 297 296 296 296 295 294 295 295 295 294 294 294 294 293 293 292 292 292 291 291 291 291 291 291 292 292 293 296 295 290 290
292 293 293 293 293 293 293 293 293 292 292 294 294 293 293 291 291 292 292 292 292 292 292 292 293 293 292 292 292 291 291 291 291 291 292 292 292 293 293 293 293 294 294 294 295 297 296 296 296 296 296 298 298 298 298 298 297 297 296 296 295 295 295 295 295 294 294 294 294 293 290 291 291 291 291 291 290 291 291 291 291 292 293 295 295 295 293
292 293 292 293 293 293 292 291 291 292 292 293 292 292 292 292 291 291 291 291 292 291 292 292 292 292 292 292 292 292 291 290 290 291 291 291 291 292 292 292 293 293 294 295 295 295 295 295 296 295 296 298 298 298 298 298 297 297 296 296 295 295 295 293 293 293 293 293 292 289 290 290 291 291 290 290 290 290 290 289 290 290 291 295 293 293 292
292 293 293 293 293 293 291 291 291 292 292 292 291 291 292 292 291 291 291 291 291 291 291 292 292 292 292 291 291 291 290 289 288 289 290 291 290 288 290 291 290 290 291 292 293 294 294 295 295 296 297 298 298 298 298 298 297 296 296 296 295 292 289 288 290 293 293 292 291 291 291 290 291 290 289 289 289 289 290 290 290 290 291 295 295 294 293
291 292 292 292 292 291 291 291 291 291 291 291 291 290 291 291 290 290 291 291 291 291 291 291 291 291 290 290 289 288 287 286 286 287 288 287 286 286 287 289 290 289 291 291 291 292 294 295 295 297 298 298 298 298 298 298 297 296 296 293 294 294 292 289 291 292 293 291 291 291 290 290 290 290 289 290 290 289 290 290 290 291 292 291 294 296 293
290 289 289 290 290 290 290 290 290 290 291 291 291 292 292 292 292 291 291 291 291 291 291 290 290 290 289 288 287 286 285 285 285 285 285 284 285 286 286 288 289 290 290 292 293 295 295 295 296 298 298 297 297 298 299 298 297 296 296 295 295 294 291 291 290 292 292 291 292 291 291 291 291 291 291 290 290 289 290 290 290 291 291 293 292 291 292
291 290 290 291 290 289 288 289 290 291 291 292 292 292 292 292 292 292 292 291 292 291 291 290 289 288 286 285 285 284 284 285 287 287 285 285 285 286 287 288 290 292 293 295 296 296 297 298 298 297 297 297 297 298 298 297 297 297 297 296 295 294 293 292 292 293 292 291 291 291 291 291 291 291 290 290 290 290 290 289 290 290 290 291 292 290 288
293 293 293 293 293 292 292 292 291 291 291 290 291 292 292 293 292 292 291 291 290 291 291 289 288 286 285 284 283 283 284 284 284 283 284 285 285 285 287 289 291 292 294 295 296 297 298 297 294 294 295 296 297 298 298 296 297 296 296 296 295 294 293 292 293 293 292 292 292 291 291 290 290 289 289 291 292 292 292 290 288 289 289 288 290 290 290
293 293 293 292 293 293 293 292 292 292 292 292 290 291 292 293 292 292 291 291 292 292 291 289 287 285 283 283 283 283 284 284 284 284 284 284 285 286 287 288 289 290 293 295 296 296 297 296 288 286 292 295 296 298 297 296 296 296 296 295 294 293 292 292 292 293 293 293 292 291 291 289 290 289 290 291 293 294 293 290 290 290 289 289 288 290 289
294 293 292 292 293 293 293 293 293 293 292 292 292 292 292 293 292 293 293 292 293 292 291 290 288 285 283 283 284 284 284 284 285 285 285 285 285 285 285 286 288 290 292 292 293 295 296 295 288 287 293 296 298 299 295 288 294 295 296 295 294 293 292 292 292 293 293 293 293 292 291 290 290 293 291 294 294 293 291 292 289 290 289 290 290 290 290
293 293 293 293 293 293 293 293 293 293 293 292 292 292 292 292 292 293 292 293 292 293 292 292 289 287 285 285 284 283 284 284 284 283 284 283 284 284 286 287 288 291 290 290 292 294 296 292 289 292 296 297 298 298 294 287 287 294 296 294 293 292 292 292 292 292 292 293 291 293 293 292 292 293 293 294 293 294 293 292 290 290 290 291 290 290 290
293 293 293 293 293 293 293 294 294 294 293 292 292 292 293 293 293 293 293 292 292 292 292 291 292 290 287 286 285 285 285 285 285 284 283 283 285 285 286 287 290 292 292 293 292 294 295 292 294 295 296 296 297 298 294 289 287 293 297 296 294 293 292 292 292 291 292 292 292 292 293 292 292 291 292 295 296 292 290 290 290 290 290 290 291 290 290
292 292 293 293 293 293 293 293 293 293 294 294 293 293 293 292 293 293 292 292 293 291 291 290 290 288 288 288 288 287 288 287 286 285 285 285 287 287 288 290 292 294 293 290 293 294 292 289 292 296 294 294 296 295 294 290 288 292 297 296 294 293 292 292 292 292 292 292 291 289 291 291 290 290 290 290 292 292 292 291 290 291 291 291 291 291 290
293 293 293 293 293 293 293 293 293 294 293 293 294 294 294 293 293 292 292 292 293 293 292 291 290 289 289 288 289 290 290 290 289 288 288 287 286 286 286 288 293 295 293 292 293 292 292 290 293 293 292 292 293 291 291 288 289 293 297 295 294 293 292 291 291 291 291 291 290 290 290 291 290 290 289 290 290 292 292 292 292 291 291 290 290 290 289
294 295 294 294 293 293 293 294 293 293 294 294 294 294 295 294 293 293 293 293 293 292 291 291 289 290 290 290 291 291 291 291 291 291 291 290 289 288 287 289 292 291 288 289 291 292 293 294 293 289 289 289 290 287 285 287 291 295 297 295 294 293 293 292 291 290 290 290 290 291 290 290 289 289 289 289 290 290 290 291 291 291 290 290 290 290 289
293 293 293 293 294 293 293 294 293 294 294 294 295 295 295 295 294 294 293 293 292 292 291 290 290 288 288 287 287 287 288 289 289 290 290 291 291 291 289 291 292 289 286 290 291 292 293 293 291 290 286 286 287 285 285 290 293 296 295 295 294 294 293 292 291 290 290 289 289 290 290 289 289 288 288 288 288 289 289 290 289 289 290 290 290 290 290
293 293 293 293 294 294 293 293 293 294 294 294 295 296 295 295 295 294 293 293 292 292 291 290 290 290 289 288 288 288 288 289 289 289 288 289 290 292 292 290 291 288 286 289 291 292 292 290 289 287 285 285 285 285 287 292 295 295 296 294 294 294 293 293 292 291 289 289 288 289 288 288 288 288 288 287 287 288 288 289 288 289 289 289 289 290 290
294 293 293 293 294 294 293 293 293 293 293 294 294 294 295 295 295 295 294 293 292 292 291 291 290 289 290 290 289 288 289 290 290 290 288 287 288 289 290 287 289 290 288 287 290 291 289 289 287 285 285 285 285 285 290 294 294 294 295 294 294 293 293 293 292 292 291 290 289 289 289 289 289 289 288 288 287 287 288 288 288 289 289 289 289 289 289
293 294 294 291 293 294 294 295 296 296 294 293 293 293 294 295 294 294 294 293 293 293 293 292 291 290 290 290 290 290 290 290 290 289 290 289 288 287 289 289 289 288 286 285 291 291 290 285 285 285 285 285 285 288 292 293 293 294 294 295 294 293 293 293 293 292 292 291 290 290 289 289 289 289 288 288 288 287 287 287 288 288 289 289 288 288 288
293 293 294 294 294 295 296 295 295 294 294 293 291 292 294 294 294 294 294 295 294 294 294 293 292 291 291 291 290 289 288 287 289 289 290 289 288 287 286 286 286 286 287 290 290 289 288 287 287 285 285 285 285 289 292 293 293 293 293 293 293 293 293 293 292 292 292 291 290 289 289 290 289 289 289 288 288 288 288 288 287 287 287 287 287 287 287
294 294 294 293 294 295 296 295 294 293 293 292 292 293 293 295 294 294 294 294 295 294 294 294 293 293 292 291 291 291 291 291 288 288 290 290 289 289 289 288 287 287 286 286 286 286 284 284 284 284 285 285 287 291 292 292 291 292 292 292 292 292 292 290 292 292 291 290 290 292 291 291 290 290 289 289 289 288 288 288 288 288 288 288 288 288 288
294 294 295 295 294 295 295 294 294 293 293 293 293 293 294 294 294 295 294 294 294 294 294 294 294 293 292 291 291 290 291 291 291 289 290 292 291 290 288 286 285 285 286 289 290 288 286 284 285 285 285 285 291 292 292 291 290 290 289 290 290 290 289 289 291 291 291 291 291 290 290 290 290 290 289 289 288 288 288 287 288 288 288 287 287 287 287
296 295 294 296 295 294 293 294 294 293 293 293 293 294 294 293 293 294 293 294 293 292 294 294 294 293 293 292 290 290 291 291 292 293 291 291 291 290 288 287 287 286 286 289 293 288 286 284 285 285 288 291 292 291 292 291 291 290 289 289 289 288 288 289 288 288 290 290 290 289 289 288 288 288 288 288 287 287 287 287 286 286 286 286 287 286 286
295 294 293 293 294 295 295 298 295 294 294 294 295 294 294 293 292 292 293 295 294 293 292 293 293 294 293 292 291 290 291 290 290 290 290 289 289 289 288 288 287 286 288 288 289 290 288 289 289 289 290 291 290 290 289 290 290 290 289 289 290 291 289 290 289 290 290 290 289 289 289 289 288 288 288 287 287 287 287 287 287 287 286 286 286 286 286
296 295 295 294 295 295 294 294 296 297 296 295 294 293 293 293 293 292 293 290 294 294 294 292 291 293 293 293 292 291 291 290 289 289 289 289 289 289 289 287 286 287 287 287 289 292 290 287 287 288 287 290 288 287 287 287 289 289 288 288 288 288 289 289 289 289 289 289 289 289 288 287 288 287 287 287 287 287 287 286 286 286 286 285 285 285 285
Wind_Speed
4 0 2 5 8 12 5 10 7 11 18 20 12 5 9 4 2 3 6 8 12 11 10 11 11 11 10 12 13 13 13 12 12 13 15 15 14 14 14 13 11 11 11 8 8 9 9 10 10 10 8 6 5 4 6 8 9 5 5 4 2 1 5 3 4 4 2 2 3 3 1 0 1 1 1 3 3 4 3 2 3 4 4 4 4 4 4
6 4 5 6 8 9 12 5 10 4 6 11 13 14 10 5 8 13 11 11 10 8 9 10 11 11 12 11 11 11 13 14 14 14 14 15 14 14 14 14 14 14 15 16 16 14 11 9 8 11 10 9 6 5 4 5 7 5 4 3 3 4 5 4 4 5 3 2 2 2 1 1 1 0 2 3 1 2 3 3 2 2 2 2 3 4 4
7 8 5 4 6 6 8 5 6 10 8 7 9 7 10 12 12 13 14 14 9 8 10 11 11 13 13 11 10 10 11 14 14 15 14 14 13 14 15 14 15 14 14 14 14 14 14 14 13 12 11 9 7 10 12 9 8 7 6 4 4 3 2 4 4 4 2 1 1 2 1 2 0 0 2 2 2 3 4 3 2 1 2 3 3 3 3
5 7 8 6 6 9 8 8 8 2 3 3 4 4 5 11 11 12 12 9 6 7 8 10 10 11 12 12 11 9 10 12 12 12 13 13 13 13 14 14 14 14 14 13 13 13 13 13 13 12 10 10 9 9 8 7 7 7 5 5 5 4 4 5 6 7 7 5 2 3 4 4 2 2 3 3 3 3 3 2 3 3 3 3 4 4 4
3 2 6 5 5 6 7 8 6 9 5 4 8 10 9 9 11 9 5 5 8 10 8 9 9 9 11 12 12 10 11 11 12 13 12 12 12 12 13 13 12 12 12 12 12 11 12 11 11 13 11 9 8 9 9 5 7 6 6 7 8 7 7 7 4 2 4 6 12 13 6 5 3 5 5 5 4 3 3 1 1 3 3 3 4 4 3
2 3 4 2 5 5 2 5 8 7 6 4 5 8 8 8 5 4 9 10 10 9 9 11 11 11 11 11 12 12 10 10 12 14 12 11 11 12 12 12 12 11 10 10 11 11 11 11 11 10 10 10 9 8 8 9 9 7 8 8 8 8 7 6 6 6 7 6 5 4 6 6 4 4 3 3 3 3 3 2 1 3 5 5 4 3 3
2 6 3 3 3 2 5 8 9 11 10 11 11 9 10 12 15 16 15 13 12 11 10 11 13 13 14 14 13 12 13 13 12 13 13 13 12 11 11 11 11 10 11 11 10 11 11 11 10 10 11 11 9 10 9 10 9 8 8 9 8 7 7 8 8 8 8 7 6 4 1 2 3 2 3 3 5 5 3 3 5 6 6 5 5 5 4
2 2 2 2 1 4 6 4 7 8 11 8 10 8 7 8 10 13 14 13 13 14 14 13 13 13 14 11 10 10 10 10 10 10 9 10 9 9 8 9 9 10 10 10 10 11 10 11 11 11 11 11 11 11 11 11 10 12 11 9 9 7 9 9 9 8 8 7 6 6 6 5 3 2 2 2 2 3 4 4 5 5 5 5 7 7 7
1 2 2 2 1 1 5 4 10 10 7 5 3 0 6 4 5 7 12 16 15 14 15 15 15 15 13 11 9 10 9 8 8 9 9 10 10 9 9 8 9 9 9 10 10 9 9 9 10 9 10 10 10 10 11 11 11 11 11 11 11 10 10 10 10 9 8 7 6 6 7 7 7 7 7 6 3 2 2 3 5 6 6 6 6 7 8
5 2 2 2 2 3 2 4 9 8 6 8 7 7 5 5 5 9 12 14 15 15 14 13 14 11 12 10 9 9 10 9 9 10 10 10 10 9 8 8 8 7 7 7 7 7 7 8 8 7 7 8 9 8 8 8 9 9 9 9 8 7 7 7 7 7 9 8 7 6 5 6 6 6 6 5 6 4 3 2 3 3 4 6 7 8 9
1 2 2 3 1 3 1 5 7 9 9 8 9 4 3 2 9 12 12 13 12 13 14 14 12 10 9 7 8 8 8 9 9 11 11 11 10 9 8 8 7 5 4 3 5 7 8 8 6 5 4 5 5 6 7 7 7 7 7 7 8 8 7 7 8 8 6 7 6 5 5 5 4 5 5 5 6 6 6 3 4 5 5 4 7 7 7
4 4 3 1 2 3 4 7 5 8 9 11 5 1 2 5 8 13 12 11 11 11 11 11 9 7 8 10 9 10 9 8 8 8 8 8 7 7 7 7 5 5 4 5 4 2 5 5 3 3 4 4 3 1 3 6 6 5 7 6 6 6 6 7 7 7 6 7 7 6 6 6 5 5 5 6 5 5 6 6 5 5 4 3 4 6 7
3 4 1 4 3 2 8 9 9 7 7 6 1 1 2 5 8 11 10 12 11 10 10 6 4 7 10 11 12 11 9 9 9 8 9 10 9 8 7 6 3 5 4 2 3 3 3 2 1 2 2 2 3 3 3 2 4 5 5 6 7 7 7 7 7 7 7 7 8 8 7 7 6 6 6 6 6 6 6 6 6 5 6 4 3 4 5
3 2 1 4 4 3 6 8 6 7 6 1 5 2 2 8 10 9 9 11 9 9 8 8 9 11 14 15 13 11 9 8 8 8 8 8 8 7 7 6 4 2 3 4 2 3 3 2 3 3 3 4 3 5 4 4 5 6 7 8 7 8 8 8 8 8 8 8 7 7 7 7 7 7 6 6 6 7 6 6 8 8 5 5 5 6 4
3 2 1 4 3 2 6 11 3 11 4 3 3 9 12 8 11 15 14 11 11 12 13 12 12 12 11 11 10 9 8 7 7 7 6 6 6 5 5 5 6 3 2 4 2 1 2 3 3 3 3 2 3 2 2 2 3 4 4 5 5 6 6 7 8 8 7 8 7 7 7 7 8 8 8 8 8 7 8 8 9 10 9 8 7 6 6
3 3 4 4 3 4 7 9 5 5 4 6 5 8 10 8 9 12 11 10 11 13 12 9 9 11 11 9 9 7 7 7 6 6 6 5 5 4 4 5 5 3 2 3 1 2 3 3 2 1 1 1 1 2 2 1 3 4 3 3 4 5 4 5 6 6 7 8 8 7 8 9 9 9 9 8 8 7 7 7 7 8 7 7 7 7 7
5 4 5 5 5 6 8 8 8 8 9 12 13 10 9 8 8 10 10 10 9 9 8 10 10 9 7 7 6 6 5 5 4 4 6 5 4 4 3 5 4 2 2 2 1 3 2 1 1 1 1 1 2 2 1 2 3 4 4 4 4 5 6 7 6 7 6 6 7 6 7 7 8 8 9 9 9 8 8 8 9 9 9 9 9 8 5
11 10 8 6 6 8 10 8 6 7 8 10 11 12 11 12 11 9 10 11 11 11 6 8 7 6 6 6 5 4 4 4 4 3 4 5 3 3 3 4 4 3 3 2 3 3 1 2 0 2 1 2 3 2 3 3 4 4 5 5 6 7 8 8 8 9 9 8 8 7 7 7 7 8 9 9 9 8 8 8 8 8 8 9 9 9 7
0 4 5 7 8 7 7 8 10 9 9 9 8 9 9 10 9 9 9 9 9 10 11 8 8 7 4 4 3 3 3 3 3 4 5 3 4 3 4 4 4 4 3 3 3 3 2 1 1 1 2 3 3 4 5 6 6 7 8 8 8 8 8 10 9 9 9 8 7 7 8 7 7 7 7 7 8 9 9 8 8 9 10 10 10 8 8
2 7 7 8 7 6 6 6 7 8 8 8 7 7 8 8 8 8 7 5 6 5 6 5 5 4 3 3 3 2 3 2 3 4 4 4 3 3 2 4 4 3 2 3 2 2 1 2 3 4 5 5 7 7 8 8 9 9 8 8 9 9 11 10 9 9 9 8 9 8 7 7 7 7 7 6 7 8 8 9 8 8 7 9 10 11 9
7 9 8 8 8 7 7 7 7 6 7 7 7 5 6 6 6 5 5 5 5 6 5 3 2 4 5 5 3 4 3 4 5 4 3 3 2 3 3 4 3 2 2 2 2 3 3 4 5 5 6 6 7 6 7 8 8 8 8 8 9 11 10 9 9 7 7 8 8 8 8 8 8 7 7 7 8 9 10 10 8 9 11 9 9 9 8
4 4 6 6 2 4 5 7 7 9 8 8 8 7 7 7 8 7 8 7 5 7 8 6 5 3 5 6 3 3 3 4 4 3 4 5 6 5 5 4 4 2 2 3 3 3 4 4 4 5 6 6 7 7 8 8 8 8 8 8 9 10 9 8 8 8 7 8 8 8 9 8 9 9 9 10 9 8 10 14 20 18 12 10 5 2 1
6 7 6 0 5 8 7 7 6 7 5 4 5 5 7 7 5 1 1 1 7 9 10 9 8 5 6 5 5 2 3 1 2 0 5 4 4 4 4 4 4 4 3 2 3 4 4 5 6 6 7 7 7 7 8 8 8 8 9 7 7 8 7 7 7 7 8 8 8 9 9 10 10 10 9 9 12 14 13 15 17 21 14 10 2 4 5
7 6 4 3 4 7 6 6 4 4 3 2 1 4 4 2 2 1 1 3 1 2 2 4 5 8 6 8 3 3 1 1 3 6 8 5 3 2 3 4 4 3 3 4 4 5 5 5 6 6 7 7 7 7 8 8 8 7 8 7 7 7 8 8 7 7 8 9 8 9 9 9 10 9 9 9 9 11 13 15 17 16 8 6 3 8 11
6 5 6 4 9 8 7 5 4 4 1 7 8 6 4 5 5 4 2 2 4 3 6 5 4 5 3 3 3 2 2 5 6 8 7 7 3 6 5 5 4 4 3 3 4 4 5 5 6 6 7 7 7 7 8 8 8 8 9 8 9 9 8 8 8 8 8 8 7 8 9 9 9 9 10 10 10 10 10 14 16 10 8 6 5 5 10
8 4 3 5 2 3 2 4 6 4 3 0 1 3 6 6 5 4 4 5 5 5 3 2 6 5 1 6 8 7 5 4 7 5 6 5 5 5 5 5 5 4 4 4 4 5 5 6 6 6 6 6 7 8 8 7 7 7 7 7 6 6 7 7 9 9 9 9 8 8 8 8 7 7 8 9 10 10 10 9 11 10 6 9 9 8 8
3 3 3 1 2 3 4 9 7 5 4 2 3 5 2 6 3 1 1 3 2 1 2 2 4 7 7 5 5 6 5 5 5 5 5 5 5 5 4 4 4 5 5 5 5 4 4 6 6 6 7 7 7 7 8 8 7 6 5 6 6 6 8 7 7 8 8 7 7 7 6 7 7 7 7 7 7 9 9 10 10 10 11 8 7 7 6
2 2 2 1 1 4 3 1 4 5 3 2 1 3 5 4 2 2 3 3 1 3 3 2 3 3 3 3 2 5 4 4 4 5 5 4 6 4 4 5 5 6 6 6 6 5 5 5 6 6 7 7 8 8 7 6 5 7 7 6 5 5 5 5 3 4 5 6 6 7 7 8 7 6 6 6 8 8 9 10 9 9 9 6 5 5 7
1 4 1 2 3 5 4 3 1 2 2 1 1 3 5 5 4 2 5 3 2 2 3 3 4 3 3 4 4 4 5 4 4 4 4 4 4 4 4 5 5 6 7 7 5 4 5 6 7 7 6 6 7 7 7 7 7 8 7 6 6 5 5 4 4 5 6 7 7 8 7 6 5 5 5 7 7 7 9 9 9 8 9 7 2 1 2
2 4 1 1 1 2 3 3 2 1 2 4 4 2 4 5 4 4 2 3 2 4 3 4 4 4 4 5 4 7 8 7 6 5 5 5 5 4 4 5 6 7 8 7 3 6 6 6 7 7 6 6 7 7 7 7 7 8 7 6 4 5 4 4 5 6 7 8 8 7 7 7 5 4 5 6 6 7 7 8 10 8 9 8 4 2 3
2 3 1 1 3 3 4 4 3 3 3 3 2 3 3 2 4 4 4 3 2 2 3 3 5 5 4 8 6 7 6 5 4 4 4 4 6 4 3 4 5 6 6 7 8 7 6 7 7 8 7 7 7 7 7 7 7 7 5 5 4 4 2 5 6 6 6 5 5 6 6 4 2 3 3 5 7 6 7 7 7 7 7 8 3 5 3
1 2 1 2 3 5 5 3 3 3 3 3 1 2 2 4 4 5 4 3 2 3 3 6 3 7 7 6 6 5 4 2 2 2 2 2 3 3 2 4 6 7 7 7 5 7 7 7 9 7 6 7 8 7 6 6 7 6 5 5 4 5 6 7 5 7 5 3 3 4 3 3 4 4 5 4 4 4 6 6 7 6 4 3 3 1 6
4 6 5 2 4 5 5 4 3 4 4 4 2 2 2 3 4 4 4 1 2 4 6 3 8 6 6 5 4 4 2 2 1 2 2 2 3 3 3 3 6 6 5 7 8 8 8 9 8 5 7 8 7 7 6 6 6 6 4 4 4 4 4 4 5 6 5 5 5 5 5 5 5 5 5 5 6 6 5 5 6 7 6 1 3 4 2
2 4 1 2 5 4 5 6 6 6 4 3 1 1 3 4 4 3 3 3 4 4 5 6 7 6 4 6 3 2 2 2 1 1 0 2 3 4 3 4 6 6 7 8 8 7 5 5 5 6 7 7 7 6 6 7 6 6 6 5 4 5 5 6 6 6 6 6 5 5 4 5 4 5 6 6 4 4 5 4 3 5 2 4 4 3 6
2 4 5 3 2 3 4 4 5 4 5 5 1 2 3 5 4 3 3 3 4 5 6 9 7 5 6 4 3 2 0 1 2 3 3 3 3 4 3 5 5 6 7 7 6 4 4 5 6 5 5 6 6 6 5 6 6 6 7 4 4 4 5 5 5 5 5 5 5 6 4 5 3 4 6 7 7 5 4 1 1 3 3 3 3 2 3
3 5 3 1 3 3 5 5 5 2 3 2 1 4 5 5 4 3 4 6 6 2 10 8 5 5 5 3 2 2 2 2 3 4 4 6 5 4 3 5 5 6 7 4 2 5 5 5 7 9 6 4 6 4 5 5 6 6 5 3 4 5 5 5 5 5 4 4 4 4 3 5 6 6 7 6 4 4 4 4 5 4 3 1 2 2 3
5 5 2 2 1 2 3 2 4 2 2 2 3 4 6 4 4 4 4 4 5 4 11 7 7 4 3 2 1 2 2 2 2 2 2 2 3 3 3 4 6 6 6 2 4 4 4 6 9 11 7 5 4 5 5 8 6 6 4 4 5 5 4 4 5 6 7 5 4 5 4 4 4 5 4 3 4 1 2 3 4 2 2 3 3 3 5
4 2 2 2 3 2 3 3 2 3 3 4 3 3 4 5 3 4 4 5 6 1 6 8 7 4 4 3 3 3 3 3 3 4 4 4 3 4 5 3 3 4 1 3 4 4 4 6 9 7 7 5 5 4 7 10 10 8 4 5 5 4 4 4 5 6 7 7 4 3 5 5 5 6 4 4 4 3 3 4 4 4 4 5 5 5 5
3 3 3 3 2 2 3 2 1 1 3 5 3 5 6 8 5 4 6 4 6 2 2 2 7 7 6 6 4 3 4 4 5 4 4 5 4 4 4 3 5 3 2 3 4 4 3 5 6 7 5 7 7 6 7 10 12 6 5 4 5 3 4 4 5 5 5 6 6 6 5 7 8 8 8 5 2 5 8 7 7 7 6 4 4 5 5
4 4 4 5 5 4 3 2 2 2 3 3 5 6 3 3 5 5 4 8 2 8 2 1 3 3 5 6 6 5 6 5 4 5 6 4 6 6 6 6 7 2 5 0 3 2 2 5 6 4 5 6 6 5 6 9 11 6 3 5 5 5 5 5 5 5 5 6 7 7 7 7 7 8 8 9 7 6 6 6 6 5 5 6 7 7 7
5 5 6 8 7 6 6 4 4 3 3 3 5 4 4 5 6 5 5 6 4 4 3 2 4 5 6 7 7 6 7 8 7 7 6 5 5 4 4 5 4 7 4 2 2 4 5 4 5 4 4 5 5 5 6 10 8 5 1 5 5 5 5 6 6 6 5 6 6 6 6 6 6 7 8 7 7 6 6 7 7 7 7 6 7 8 8
7 7 4 6 6 6 6 5 5 5 5 4 4 5 6 6 6 7 6 6 1 3 2 4 2 2 3 3 2 2 3 5 7 8 8 7 6 3 3 3 6 5 3 1 5 6 7 3 3 6 4 5 6 8 10 7 5 5 1 5 5 5 5 5 6 5 5 5 6 6 5 6 6 6 7 7 7 7 6 7 7 7 7 7 7 7 7
8 9 5 7 3 1 5 6 8 8 4 4 5 6 5 6 5 5 5 4 2 3 3 4 6 4 4 5 5 5 4 4 4 5 5 6 6 5 3 1 6 4 1 2 3 7 2 5 5 4 5 5 5 10 11 7 6 1 3 3 5 5 5 5 6 5 5 5 6 6 6 4 4 5 6 6 7 6 7 7 6 7 6 6 6 7 7
6 8 9 8 5 6 5 6 7 10 8 4 5 6 6 6 6 6 5 7 7 5 4 4 4 5 5 4 4 4 4 4 4 4 5 5 5 5 4 1 5 5 3 2 4 4 4 5 4 5 6 9 9 12 8 6 2 3 2 3 3 4 4 5 6 6 5 5 5 5 4 5 5 5 5 4 6 6 6 5 5 5 7 7 6 7 7
8 8 10 7 7 5 6 6 6 8 6 5 4 5 5 6 6 7 7 7 6 4 4 3 4 3 3 3 3 4 3 2 2 2 3 3 3 5 4 3 2 4 3 2 4 2 5 3 4 6 7 8 9 11 7 6 4 3 2 4 3 3 3 5 6 6 5 6 6 5 5 5 4 4 4 5 5 5 5 5 5 6 7 7 6 6 7
7 7 9 9 8 7 7 6 1 8 7 5 5 5 5 4 5 7 7 6 6 5 5 5 5 4 4 3 4 3 2 2 2 2 3 3 4 4 4 5 4 4 2 3 3 4 4 3 5 6 7 7 8 7 5 2 3 3 5 3 3 5 4 3 5 6 6 6 6 6 5 5 4 5 5 4 4 4 5 6 6 6 5 6 6 6 6
7 6 5 8 10 9 5 6 6 2 9 5 5 5 6 7 6 6 7 7 7 6 6 6 5 5 4 4 4 3 4 4 4 3 2 5 6 5 5 6 5 3 1 1 3 3 2 2 3 6 7 8 8 5 4 3 4 3 3 4 6 5 4 5 7 6 6 6 6 7 7 7 5 5 5 4 4 3 4 5 5 6 6 7 6 7 7
7 6 5 8 10 10 5 7 5 5 5 8 4 3 5 6 7 7 7 6 6 7 6 5 5 5 5 4 4 4 3 2 2 5 4 4 6 6 6 4 4 4 3 3 3 2 2 3 3 5 6 7 7 4 3 4 4 4 4 3 5 5 5 4 4 4 6 7 7 6 5 5 6 6 4 4 3 3 3 3 4 4 3 3 3 3 3
7 6 5 9 8 5 3 5 5 6 6 4 5 7 4 5 4 5 5 7 7 7 6 6 6 6 6 5 4 4 4 4 3 2 4 2 4 5 5 6 7 7 5 4 5 3 4 5 4 6 7 8 3 3 4 4 3 3 3 3 3 3 4 4 3 4 5 4 5 5 5 5 4 5 4 4 4 4 5 4 3 3 4 4 5 6 5
9 8 5 7 6 6 5 3 4 4 5 5 5 4 2 2 4 6 5 5 6 7 6 6 6 6 5 6 5 5 4 4 4 3 4 4 4 6 6 6 5 5 4 4 5 5 4 5 5 5 6 2 3 3 3 3 2 2 2 3 3 3 3 3 4 5 5 4 4 4 4 3 3 5 5 4 3 3 4 4 5 7 8 5 3 3 3
1 2 4 6 7 9 7 6 6 6 5 5 5 6 5 4 4 4 7 4 1 4 5 5 5 5 6 6 6 5 5 5 5 3 4 4 4 3 4 5 5 4 4 4 2 4 4 4 2 1 2 1 3 2 2 2 2 2 2 2 2 2 2 2 3 2 2 2 3 3 4 4 4 4 3 3 3 3 4 4 4 3 3 3 3 3 3
2 1 2 3 4 6 5 4 4 6 5 7 6 3 2 3 2 3 6 4 7 6 5 9 7 5 4 6 5 5 5 5 4 3 3 4 4 4 4 4 3 4 4 3 3 2 3 3 3 2 4 1 3 2 2 0 2 2 2 2 2 2 3 3 4 3 3 3 3 3 4 3 3 3 3 3 3 4 3 3 3 3 4 4 3 3 3
Wind_Direction
294 342 13 13 353 336 345 360 337 349 33 27 9 264 239 238 81 124 150 136 122 129 127 126 130 128 123 123 121 116 111 113 117 116 107 98 90 83 74 67 65 77 83 91 86 89 107 111 106 105 101 87 79 65 23 16 13 22 72 71 57 103 98 97 110 121 104 117 133 126 149 66 343 22 301 225 211 245 256 209 169 189 192 199 180 201 213
219 218 251 4 4 348 352 34 1 5 80 70 52 10 26 87 109 139 138 116 96 107 120 118 107 109 118 106 103 117 122 116 106 101 97 91 88 90 89 86 76 62 53 45 41 39 41 64 92 115 129 137 133 97 101 156 150 243 92 102 87 72 85 89 95 104 105 75 34 46 21 210 166 129 329 309 289 267 258 258 206 193 248 237 218 197 224
229 219 235 296 299 326 329 355 43 30 21 79 107 100 59 71 102 118 119 105 88 47 70 80 91 104 110 116 125 123 117 114 111 105 99 93 91 86 82 78 72 67 62 56 55 53 52 47 41 31 27 57 77 133 155 184 157 154 128 100 73 68 136 157 114 107 106 166 147 116 220 273 13 93 236 293 324 313 297 309 324 292 251 270 278 269 233
232 229 228 192 220 265 293 290 289 307 44 73 49 84 120 123 125 114 104 104 108 106 97 103 99 109 113 117 119 115 108 108 106 110 103 99 92 88 82 75 71 66 62 59 56 54 53 50 45 43 35 45 37 33 35 65 56 93 96 114 140 144 152 123 128 143 151 183 240 272 228 219 157 258 251 211 224 231 268 319 320 320 289 254 256 251 264
252 207 187 189 199 194 242 253 288 288 123 123 90 72 93 112 121 124 134 115 119 118 115 113 113 122 120 119 118 121 115 109 105 98 98 88 80 73 70 69 69 65 63 58 56 54 55 51 48 38 35 45 36 22 15 18 115 94 73 63 56 43 40 37 60 121 171 166 158 187 197 250 200 209 204 204 206 201 225 212 0 323 295 268 245 257 243
243 313 17 306 194 211 213 16 319 312 232 172 104 89 97 126 150 90 99 115 121 133 147 142 137 128 105 85 68 60 66 83 91 88 91 90 79 67 65 66 64 63 59 53 49 48 46 46 44 40 32 25 16 18 20 25 18 71 80 65 49 38 35 42 34 23 37 39 35 57 123 158 216 224 197 191 195 201 174 150 216 276 283 307 324 297 284
295 17 13 51 255 233 10 310 358 36 76 91 92 79 81 95 103 110 117 128 142 149 147 120 105 87 89 84 87 87 86 85 85 79 64 56 55 58 55 47 49 51 51 49 48 42 36 34 31 32 28 16 18 24 20 21 18 22 58 62 49 34 35 24 24 16 23 25 24 26 33 152 173 192 253 211 187 208 201 180 192 218 242 261 277 281 293
354 277 112 223 87 346 14 7 19 42 77 79 88 72 57 83 102 116 128 138 136 133 122 109 104 103 95 94 92 88 88 96 105 107 103 100 87 67 55 59 52 43 45 46 40 38 33 34 31 26 21 16 16 18 19 18 14 8 11 51 43 30 24 19 13 15 8 11 9 3 1 2 334 320 253 251 217 183 190 192 194 215 229 216 221 244 254
163 254 201 140 42 347 26 332 25 2 31 358 341 157 119 101 115 118 110 125 126 124 126 130 132 126 121 119 112 119 119 118 116 109 106 102 101 102 91 67 43 36 41 38 31 41 41 32 35 24 22 11 15 16 15 10 9 13 12 22 18 14 17 4 353 0 359 357 2 359 356 343 355 1 358 349 329 316 247 220 205 197 199 203 205 228 245
226 260 236 191 153 192 76 346 355 360 356 340 350 85 105 150 132 105 96 104 121 122 112 93 90 105 121 131 129 118 113 117 114 117 112 103 94 84 80 83 89 69 36 34 29 27 41 40 34 25 28 21 16 11 14 356 2 9 10 12 8 9 4 349 338 360 333 339 344 347 343 341 352 348 339 333 323 323 292 283 275 246 200 193 194 213 226
240 341 325 309 330 87 317 39 332 0 338 344 336 263 107 100 108 109 109 106 111 114 115 116 110 108 117 127 136 124 120 115 109 104 99 93 86 80 76 87 88 63 46 69 49 35 22 37 16 22 15 53 26 6 0 345 357 352 10 11 358 357 349 349 340 339 326 327 326 328 330 324 338 325 317 322 316 313 309 281 240 241 247 190 188 214 229
232 166 200 187 84 80 12 13 1 331 342 321 309 223 136 66 125 118 120 122 114 125 124 130 147 155 143 144 149 142 130 121 115 108 99 89 84 91 93 66 58 114 136 90 42 68 65 7 312 12 1 30 11 24 345 332 324 15 13 352 342 338 344 346 331 319 316 323 335 338 327 325 320 316 313 300 295 295 300 305 300 288 255 259 185 222 233
277 247 123 84 117 18 357 337 333 334 328 317 255 115 120 184 133 115 125 133 141 143 152 163 86 65 117 131 130 130 130 120 108 110 121 126 129 118 106 110 160 126 140 109 113 102 122 147 47 354 23 359 344 12 355 313 8 3 356 351 349 340 330 319 316 321 330 331 330 325 319 312 311 302 295 288 284 287 287 289 290 282 279 271 236 211 210
322 288 51 79 65 313 291 307 313 332 293 69 78 154 194 86 99 108 88 86 94 119 104 81 94 97 102 112 125 130 124 113 113 114 111 104 99 107 116 112 77 62 112 122 79 47 61 28 34 14 35 6 9 26 355 359 358 353 346 340 332 326 323 327 331 331 327 321 316 308 300 292 284 278 274 278 283 283 281 279 279 282 280 266 250 239 217
309 317 120 112 69 27 326 315 260 7 46 105 127 59 49 99 103 86 79 87 94 96 101 96 97 107 118 120 116 113 114 112 104 98 98 102 99 95 113 108 62 8 104 94 79 78 57 49 16 16 16 6 40 21 311 327 339 315 310 297 308 313 318 317 318 314 311 312 310 308 304 301 296 287 282 278 275 275 270 265 266 269 269 264 260 245 232
319 50 71 58 52 58 27 22 59 48 16 333 88 81 67 51 91 88 81 80 98 104 100 97 94 105 102 100 113 112 109 108 111 111 107 100 99 95 88 90 58 360 40 58 63 80 62 51 18 22 3 14 40 307 288 338 255 257 268 298 297 302 297 293 289 299 306 306 305 305 306 308 307 304 300 293 285 280 280 280 281 277 278 271 252 239 230
40 74 95 119 92 66 61 66 73 57 45 44 42 60 76 90 81 75 79 74 70 74 93 102 100 82 81 78 79 92 100 103 82 94 103 91 93 92 87 95 58 354 37 33 81 70 68 83 67 46 17 303 261 272 350 291 336 332 333 319 322 321 313 310 312 304 299 297 299 301 302 304 303 302 300 300 292 284 274 268 265 263 261 261 264 265 225
77 63 75 92 89 80 72 75 87 79 75 67 63 65 64 54 51 52 57 44 41 32 39 105 82 99 108 117 106 110 109 99 107 93 85 80 71 61 62 72 50 358 12 26 65 59 57 82 109 143 236 275 295 341 321 335 330 325 317 328 330 326 320 317 315 312 307 308 303 301 309 313 309 306 306 302 295 289 289 290 289 278 267 262 262 262 249
155 94 121 98 95 87 78 75 74 70 66 72 75 77 76 74 70 65 58 57 52 47 25 52 88 82 75 107 115 116 103 96 91 99 86 68 63 50 45 63 42 358 14 15 44 42 13 4 12 31 312 297 317 345 331 327 336 338 341 336 331 325 319 315 314 310 308 304 314 311 299 290 285 281 280 286 294 299 296 284 270 271 276 282 281 281 273
35 106 118 113 104 105 102 119 107 98 93 90 88 90 92 101 97 94 101 103 100 82 70 82 89 96 74 54 40 27 92 77 78 68 52 43 32 41 25 57 24 348 359 31 24 357 353 359 6 343 336 347 346 357 351 343 344 342 334 337 329 319 315 314 309 310 308 315 311 302 302 306 304 301 298 304 306 303 304 306 322 332 343 331 306 275 267
98 108 122 123 111 109 108 101 96 92 97 90 92 96 102 109 107 109 110 105 113 121 125 138 176 187 159 96 31 1 21 61 56 35 30 23 35 30 17 31 360 341 17 346 344 344 1 352 358 346 354 349 341 346 344 349 343 336 335 330 324 316 314 310 307 309 307 305 306 307 311 308 303 302 307 312 306 305 308 312 324 326 318 314 313 344 352
158 140 126 135 150 144 120 113 112 116 123 132 130 137 141 131 134 143 136 139 150 155 151 142 129 110 78 83 60 8 34 71 47 21 34 22 17 6 15 358 318 325 14 38 8 8 350 358 350 348 342 345 345 348 345 336 333 329 332 328 321 315 313 311 307 310 311 313 313 311 307 304 304 303 300 300 292 295 303 304 304 294 280 277 269 314 88
57 88 123 19 65 115 123 130 127 124 125 129 141 141 119 106 86 87 198 171 187 177 159 161 158 160 130 119 103 60 25 6 56 274 62 24 346 347 344 327 327 28 3 3 360 0 351 355 344 348 348 340 344 336 334 333 339 336 332 324 319 313 312 310 315 320 309 303 305 306 305 306 306 304 305 302 300 296 292 295 294 297 286 228 181 97 147
93 101 121 351 93 116 120 109 109 92 85 81 77 129 101 163 188 144 274 233 192 271 234 323 17 73 100 102 109 90 251 218 11 354 30 343 310 331 332 340 346 356 355 3 1 352 344 340 338 342 338 335 327 332 340 344 347 345 337 333 320 313 308 306 310 305 305 304 305 302 302 303 301 304 305 303 299 300 306 307 306 300 276 265 225 148 146
80 72 60 75 108 130 147 148 117 107 153 37 27 49 50 43 44 328 184 1 329 346 354 5 269 144 112 192 183 155 346 3 32 31 326 283 341 12 344 350 339 355 352 339 335 329 330 334 343 340 324 322 335 346 350 347 350 348 341 332 322 314 310 310 311 313 310 305 300 298 298 298 299 301 300 300 305 309 309 306 304 286 255 250 261 197 166
113 115 111 100 122 96 138 191 164 121 115 12 256 229 115 79 56 331 342 314 23 22 358 341 325 322 333 6 21 19 2 334 35 352 291 323 12 355 351 342 347 330 320 325 331 313 327 350 321 304 310 337 350 356 351 349 358 350 340 324 311 304 306 304 300 298 295 295 295 295 294 293 295 295 296 295 296 299 304 308 310 308 246 236 233 217 213
79 115 130 141 146 143 81 66 60 58 60 74 355 329 83 121 162 95 304 236 221 189 256 57 335 355 12 17 343 346 340 341 317 304 330 348 359 2 347 325 301 308 314 305 299 311 308 286 296 322 335 347 355 353 347 357 357 337 309 300 296 289 265 258 269 275 280 283 286 286 288 285 282 281 282 288 294 299 300 300 302 301 314 287 228 233 244
69 90 15 3 25 62 61 95 164 183 196 344 80 241 267 233 226 291 278 272 284 214 233 159 196 259 352 7 323 280 303 321 331 316 311 345 13 357 317 315 324 322 322 310 288 283 292 312 324 337 339 348 346 345 350 359 342 325 319 312 316 308 305 292 293 293 282 279 273 267 264 264 266 275 288 292 290 288 292 295 286 291 289 318 16 334 329
152 94 85 40 46 61 36 21 55 317 316 118 204 288 287 306 291 231 252 249 263 324 310 317 15 5 316 311 293 277 271 276 290 307 339 3 352 322 316 320 314 302 284 282 295 320 322 328 337 337 334 345 341 341 348 357 341 333 336 339 335 336 326 340 338 312 302 297 289 288 283 274 263 265 272 283 284 286 290 283 290 296 302 305 268 149 25
105 91 89 145 239 226 219 226 266 278 231 221 226 264 333 320 306 279 233 263 290 272 2 9 343 312 282 285 26 43 51 45 31 9 356 331 323 346 358 332 308 286 267 260 325 0 345 333 319 321 335 342 341 348 355 350 337 344 346 339 338 331 348 3 321 313 317 319 316 309 289 267 258 248 265 267 276 289 283 285 283 282 285 287 260 234 196
142 131 109 21 314 298 271 288 295 271 267 288 310 357 313 294 278 291 271 255 278 352 343 318 278 288 35 71 63 60 58 44 22 357 337 0 40 43 357 308 291 292 313 332 337 327 322 317 304 300 325 340 356 347 354 341 345 347 344 341 337 15 89 339 324 311 307 316 313 310 301 277 255 263 266 271 284 284 286 287 285 286 285 282 248 239 155
185 146 186 288 261 254 267 268 269 285 294 291 263 215 237 275 272 267 287 300 344 322 306 267 298 85 87 68 70 68 59 58 18 3 6 3 358 348 309 284 283 285 291 302 297 291 287 289 282 293 344 357 346 344 353 345 351 349 337 344 359 350 341 326 321 325 312 307 284 283 309 308 289 291 287 280 277 276 285 293 294 295 318 273 250 257 123
210 202 212 245 293 293 282 279 279 275 281 289 256 211 219 224 254 271 278 326 308 254 250 95 94 88 79 75 61 55 47 21 16 332 328 303 281 270 265 274 279 282 276 267 262 260 260 263 274 332 2 347 340 338 355 345 347 342 354 13 350 339 330 331 326 315 325 326 323 334 320 307 304 297 302 307 292 287 283 285 294 301 295 320 34 358 105
215 292 7 205 241 291 320 336 342 334 306 272 65 161 224 240 254 265 245 220 251 270 289 107 108 96 84 79 77 66 40 339 268 233 275 278 271 262 265 262 263 270 269 264 258 260 259 279 356 17 346 332 332 337 347 349 343 345 354 360 357 346 347 336 331 341 327 337 325 304 299 297 306 304 297 289 289 285 281 291 332 324 1 55 48 27 64
159 219 233 267 350 306 310 329 328 322 319 297 213 179 237 246 231 228 56 356 287 277 94 108 103 100 100 105 102 141 158 239 289 300 281 271 272 271 268 285 287 277 272 263 258 264 329 30 38 355 336 316 323 331 17 352 351 357 349 1 3 355 358 337 338 339 334 332 327 323 310 312 301 293 279 278 287 289 316 9 9 294 55 77 85 80 82
224 237 218 152 292 356 336 328 304 331 346 304 185 230 218 216 211 224 191 218 251 140 117 110 115 115 112 130 165 180 210 244 266 285 283 270 265 267 280 289 288 279 265 256 27 22 328 35 14 352 320 306 287 17 32 3 359 345 339 31 15 26 8 342 330 317 311 314 313 301 288 286 277 271 272 275 288 354 360 13 11 48 50 79 105 99 92
247 254 230 261 319 12 335 292 309 357 120 220 200 236 276 258 198 212 245 270 269 118 127 137 125 124 161 171 161 147 199 222 258 271 295 318 314 305 286 269 273 274 277 269 52 339 351 28 351 323 301 290 301 70 74 40 10 326 320 42 40 34 2 347 345 352 349 343 324 312 289 281 294 303 328 28 28 311 360 50 69 81 125 99 81 57 48
215 264 352 9 295 288 285 338 348 270 259 212 145 167 230 268 220 230 237 266 279 350 105 125 139 143 155 163 192 201 217 224 236 261 271 278 277 277 272 251 256 258 296 32 0 336 36 14 323 312 305 318 355 31 59 30 5 338 10 77 56 41 354 351 345 7 353 342 336 358 20 15 8 10 18 356 354 347 23 63 80 75 57 57 57 63 63
220 206 225 241 287 315 301 297 252 224 268 284 215 201 212 228 228 227 244 247 261 233 141 171 149 155 164 183 207 205 213 227 221 227 241 252 253 252 257 271 280 319 45 35 349 315 33 2 317 307 330 15 2 8 36 15 352 336 338 55 58 49 13 350 360 1 348 341 350 351 20 28 12 11 355 331 304 69 75 74 73 67 65 67 77 76 70
283 254 249 242 235 263 282 285 288 271 243 221 274 276 227 240 248 242 245 266 228 111 154 213 215 194 200 210 217 210 197 204 213 220 233 241 251 255 255 245 245 186 108 82 289 338 336 294 301 331 19 2 358 8 2 353 339 318 353 53 54 43 26 5 357 358 12 5 14 14 18 16 15 11 9 3 8 46 83 97 95 93 84 81 78 71 68
276 266 229 227 238 216 230 250 255 249 252 255 229 249 275 234 229 239 253 265 263 133 133 216 237 209 216 215 213 218 194 190 198 209 213 223 239 246 248 261 201 117 93 52 333 298 299 314 308 13 24 351 334 9 356 332 322 301 21 70 60 48 39 26 19 8 10 13 25 27 25 24 26 24 8 8 10 32 59 66 70 69 71 72 76 78 77
239 225 290 313 292 286 273 256 232 241 252 223 231 234 234 256 263 250 246 254 129 118 244 245 192 300 316 326 279 248 213 193 197 206 205 216 236 263 288 92 88 81 51 263 251 257 254 217 100 65 23 340 326 337 336 307 291 268 81 80 80 75 57 43 42 33 22 29 26 24 39 43 41 32 22 11 15 22 45 59 65 71 75 74 80 84 87
327 313 267 225 192 314 315 336 335 301 238 238 223 209 223 236 235 245 248 265 273 258 223 233 132 161 236 240 244 248 245 230 228 237 235 225 234 249 273 343 94 88 357 311 306 285 352 67 45 44 357 341 316 324 320 306 279 222 78 83 95 95 84 80 73 54 46 35 39 41 41 37 48 53 37 24 15 22 40 58 68 63 70 78 80 80 81
324 310 299 281 223 195 227 234 214 245 252 230 244 220 202 218 224 231 237 251 245 206 236 266 233 203 200 206 214 237 231 212 215 217 227 232 204 194 186 328 98 98 67 319 284 312 66 63 54 360 344 335 330 333 317 289 296 63 76 67 56 69 81 94 84 77 72 67 48 36 31 45 52 47 47 44 37 38 36 40 59 74 74 73 74 79 79
258 251 262 274 282 238 222 237 259 254 252 261 266 271 227 208 223 225 231 232 244 236 217 236 269 271 244 206 218 228 264 296 261 221 236 258 212 146 112 111 113 108 78 358 286 22 68 38 20 359 344 333 334 331 317 317 7 22 53 87 76 63 72 88 103 97 99 91 88 72 44 43 56 67 67 49 42 41 41 49 65 77 85 85 78 75 73
274 296 311 292 255 215 198 191 196 299 269 252 248 239 251 219 209 224 227 235 241 230 216 215 235 238 245 232 221 229 268 262 245 263 296 58 71 88 63 69 85 91 30 318 315 73 88 64 8 354 329 326 331 323 302 357 28 5 353 8 122 137 128 103 102 114 107 114 120 109 90 77 65 58 59 64 55 44 39 47 54 55 56 64 70 74 73
275 277 285 296 293 289 196 152 122 288 291 261 249 251 208 198 218 226 229 218 227 233 212 205 218 225 222 228 230 206 209 212 199 196 184 114 110 104 101 98 105 106 292 292 54 45 25 13 346 329 320 318 324 306 312 40 24 37 27 14 4 18 23 114 132 116 114 119 122 120 119 118 112 96 78 68 65 63 65 66 71 72 73 73 72 73 77
280 277 254 249 250 251 204 153 166 175 243 265 260 248 259 210 193 219 229 233 220 223 228 214 209 204 207 207 225 241 251 273 228 176 168 144 139 148 158 160 145 152 128 114 108 147 194 258 276 292 299 305 298 280 59 50 41 36 37 33 21 17 24 18 25 84 129 150 167 139 124 108 102 99 101 97 99 101 91 83 87 84 83 85 87 87 91
246 240 300 316 299 293 213 217 214 205 209 214 284 295 320 326 269 219 224 228 226 213 214 213 217 207 187 192 207 209 215 222 298 86 126 151 145 132 115 123 142 157 193 225 169 173 193 225 254 272 290 294 288 64 74 72 73 73 57 35 47 45 31 23 22 26 43 54 57 59 67 73 88 103 105 101 92 71 57 50 53 73 80 67 57 52 54
335 315 239 215 253 278 267 229 229 217 207 219 227 226 184 101 317 307 287 229 223 231 225 215 208 201 194 177 184 215 209 191 182 144 143 136 118 128 146 150 158 177 215 274 156 151 174 197 237 255 288 296 60 62 77 83 72 75 93 98 93 72 59 89 69 51 56 57 62 68 71 73 62 54 62 72 77 86 88 85 75 67 65 76 86 85 79
293 345 6 356 343 309 275 209 219 222 227 227 212 209 206 187 202 199 253 246 161 305 285 251 231 217 183 174 180 203 191 176 185 174 156 154 165 129 124 140 150 173 203 245 256 161 162 189 176 234 295 74 79 53 55 69 94 79 69 93 105 107 117 90 69 66 69 93 105 113 116 120 124 120 115 112 116 121 125 127 123 110 102 102 96 94 91
232 141 54 359 321 287 300 328 335 282 215 195 207 171 185 215 216 281 274 179 161 154 239 279 270 236 207 173 178 189 175 167 146 158 190 165 162 162 132 135 164 166 203 222 232 198 125 112 117 146 273 269 123 118 124 155 112 106 112 89 73 93 104 128 142 144 145 134 121 114 98 105 114 115 117 117 115 110 100 86 81 90 96 91 85 91 103